Weather History for Goderich, ON

Change the Weather History Date:

Sunday, November 25, 2012

  Actual Average Record
Temperature  
Mean Temperature 32 °F -  
Max Temperature 35 °F - - ()
Min Temperature 28 °F - - ()
Degree Days  
Heating Degree Days 34    
Moisture  
Dew Point 26 °F    
Average Humidity 76    
Maximum Humidity 100    
Minimum Humidity 52    
Precipitation  
Precipitation 0.04 in - - ()
Sea Level Pressure  
Sea Level Pressure 29.86 in    
Wind  
Wind Speed 13 mph ()    
Max Wind Speed 21 mph    
Max Gust Speed 30 mph    
T = Trace of Precipitation, MM = Missing Value Source: Averaged Metar Reports

Daily Weather History Graph

Daily Weather History Graph

Search for Another Location

Airport:

Trip Planner

Search our weather history database for the weather conditions in past years. The results will help you decide how hot, cold, wet, or windy it might be!

Date:

Astronomy

Nov. 25, 2012 Rise Set
Actual Time 7:34 AM EST 4:53 PM EST
Civil Twilight 7:02 AM EST 5:25 PM EST
Nautical Twilight 6:27 AM EST 6:00 PM EST
Astronomical Twilight 5:52 AM EST 6:35 PM EST
Moon 3:12 PM EST (11/25) 4:43 AM EST (11/25)
Length of Visible Light 10h 22m
Length of Day
9h 18m
Waxing Gibbous, 93% of the Moon is Illuminated
Nov 25
Waxing Gibbous
Nov 28
Full
Dec 6
Last Quarter
Dec 13
New
Dec 20
First Quarter

Hourly Weather History & Observations

Time (EST) Temp. Windchill Dew Point Humidity Pressure Visibility Wind Dir Wind Speed Gust Speed Precip Events Conditions
12:00 AM 31.5 °F 21.8 °F 19.0 °F 60% 29.96 in - West 12.7 mph - N/A   Unknown
1:00 AM 32 °F - 21 °F 52% 29.95 in - West 12.7 mph - -  
1:00 AM 31.8 °F 22.3 °F 21.0 °F 64% 29.95 in - West 12.7 mph - N/A   Unknown
2:00 AM 31.5 °F 20.9 °F 21.2 °F 66% 29.94 in - West 15.0 mph 21.9 mph N/A   Unknown
3:00 AM 31.3 °F 21.6 °F 21.2 °F 66% 29.94 in - West 12.7 mph 19.6 mph N/A   Unknown
4:00 AM 31.3 °F 21.6 °F 21.6 °F 67% 29.93 in - WSW 12.7 mph - N/A   Unknown
5:00 AM 30.9 °F 20.7 °F 20.3 °F 65% 29.91 in - WSW 13.8 mph 19.6 mph N/A   Unknown
6:00 AM 30.6 °F 20.7 °F 22.6 °F 72% 29.89 in - WSW 12.7 mph 19.6 mph N/A   Unknown
7:00 AM 29 °F - 27 °F 87% 29.88 in - WSW 12.7 mph - -  
7:00 AM 29.1 °F 18.9 °F 26.6 °F 90% 29.88 in - WSW 12.7 mph 19.6 mph N/A   Unknown
8:00 AM 29.7 °F 19.1 °F 29.1 °F 98% 29.87 in - WSW 13.8 mph 21.9 mph 0.01 in   Unknown
9:00 AM 30.4 °F 19.5 °F 28.9 °F 94% 29.86 in - WSW 15.0 mph - 0.02 in   Unknown
10:00 AM 30.9 °F 20.7 °F 30.9 °F 100% 29.84 in - SW 13.8 mph - 0.01 in   Unknown
11:00 AM 31.5 °F 20.1 °F 28.4 °F 88% 29.83 in - WSW 17.3 mph - N/A   Unknown
12:00 PM 31.5 °F 20.9 °F 26.4 °F 82% 29.81 in - WSW 15.0 mph 21.9 mph N/A   Unknown
1:00 PM 32 °F - 27 °F 74% 29.80 in - SW 15.0 mph - -  
1:00 PM 32.0 °F 21.6 °F 26.8 °F 81% 29.80 in - SW 15.0 mph - N/A   Unknown
2:00 PM 31.5 °F 20.9 °F 27.5 °F 85% 29.79 in - WSW 15.0 mph - N/A   Unknown
3:00 PM 31.3 °F 21.1 °F 27.7 °F 87% 29.78 in - West 13.8 mph 19.6 mph N/A   Unknown
4:00 PM 33.4 °F 23.1 °F 28.2 °F 81% 29.79 in - West 16.1 mph 23.0 mph N/A   Unknown
5:00 PM 33.6 °F 23.7 °F 27.5 °F 78% 29.80 in - West 15.0 mph 21.9 mph N/A   Unknown
6:00 PM 34.0 °F 22.7 °F 27.0 °F 75% 29.82 in - West 19.6 mph 26.5 mph N/A   Unknown
7:00 PM 35 °F - 27 °F 64% 29.84 in - West 18.4 mph - -  
7:00 PM 34.5 °F 23.8 °F 27.3 °F 75% 29.84 in - West 18.4 mph 27.6 mph N/A   Unknown
8:00 PM 35.1 °F 23.8 °F 26.8 °F 72% 29.85 in - West 20.7 mph 29.9 mph N/A   Unknown
9:00 PM 35.1 °F 23.8 °F 26.4 °F 71% 29.86 in - West 20.7 mph 29.9 mph N/A   Unknown
10:00 PM 35.4 °F 24.3 °F 25.3 °F 67% 29.87 in - West 20.7 mph 29.9 mph N/A   Unknown
11:00 PM 35.6 °F 25.2 °F 27.0 °F 71% 29.88 in - West 18.4 mph 26.5 mph N/A   Unknown